Time,TemperatureF,DewpointF,PressureIn,WindDirection,WindDirectionDegrees,WindSpeedMPH,WindSpeedGustMPH,Humidity,HourlyPrecipIn,Conditions,Clouds,dailyrainin,SoftwareType,DateUTC
2013-02-28 00:00:00,33.8,28.0,29.65,WSW,246,0.0,0.0,79,0.00,,,0.00,VWS V14.00,2013-02-28 05:00:00,
2013-02-28 00:05:00,33.6,28.4,29.65,WSW,239,0.0,0.0,81,0.00,,,0.00,VWS V14.00,2013-02-28 05:05:00,
2013-02-28 00:10:00,33.6,28.4,29.65,SW,233,0.0,0.0,81,0.00,,,0.00,VWS V14.00,2013-02-28 05:10:00,
2013-02-28 00:15:00,33.4,28.0,29.65,SW,223,0.0,0.0,80,0.00,,,0.00,VWS V14.00,2013-02-28 05:15:00,
2013-02-28 00:20:00,33.4,27.6,29.65,West,265,0.0,0.0,79,0.00,,,0.00,VWS V14.00,2013-02-28 05:20:00,
2013-02-28 00:26:00,33.4,27.3,29.65,WSW,255,0.0,0.0,78,0.00,,,0.00,VWS V14.00,2013-02-28 05:26:00,
2013-02-28 00:31:00,33.4,27.0,29.65,WSW,238,0.0,0.0,77,0.00,,,0.00,VWS V14.00,2013-02-28 05:31:00,
2013-02-28 00:36:00,33.3,26.8,29.65,WSW,238,0.0,0.0,77,0.00,,,0.00,VWS V14.00,2013-02-28 05:36:00,
2013-02-28 00:41:00,33.1,27.0,29.65,WSW,252,0.0,0.0,78,0.00,,,0.00,VWS V14.00,2013-02-28 05:41:00,
2013-02-28 00:46:00,33.1,27.0,29.65,WSW,252,0.0,0.0,78,0.00,,,0.00,VWS V14.00,2013-02-28 05:46:00,
2013-02-28 00:51:00,32.9,27.1,29.65,SW,232,0.0,0.0,79,0.00,,,0.00,VWS V14.00,2013-02-28 05:51:00,
2013-02-28 00:56:00,32.9,27.1,29.65,WSW,246,0.0,0.0,79,0.00,,,0.00,VWS V14.00,2013-02-28 05:56:00,
2013-02-28 01:01:00,32.7,26.6,29.65,West,279,0.0,0.0,78,0.00,,,0.00,VWS V14.00,2013-02-28 06:01:00,
2013-02-28 01:06:00,32.7,26.0,29.65,WSW,256,0.0,0.0,76,0.00,,,0.00,VWS V14.00,2013-02-28 06:06:00,
2013-02-28 01:11:00,32.7,26.0,29.65,WSW,252,0.0,0.0,76,0.00,,,0.00,VWS V14.00,2013-02-28 06:11:00,
2013-02-28 01:16:00,32.5,25.8,29.65,SW,236,0.0,0.0,76,0.00,,,0.00,VWS V14.00,2013-02-28 06:16:00,
2013-02-28 01:21:00,32.3,25.6,29.65,SW,231,0.0,0.0,76,0.00,,,0.00,VWS V14.00,2013-02-28 06:21:00,
2013-02-28 01:27:00,32.3,25.6,29.65,SW,234,0.0,0.0,76,0.00,,,0.00,VWS V14.00,2013-02-28 06:27:00,
2013-02-28 01:32:00,32.3,25.3,29.65,WSW,241,0.0,0.0,75,0.00,,,0.00,VWS V14.00,2013-02-28 06:32:00,
2013-02-28 01:37:00,32.2,25.1,29.65,West,259,0.0,0.0,75,0.00,,,0.00,VWS V14.00,2013-02-28 06:37:00,
2013-02-28 01:42:00,32.2,25.1,29.65,SW,230,0.0,0.0,75,0.00,,,0.00,VWS V14.00,2013-02-28 06:42:00,
2013-02-28 01:47:00,32.2,25.1,29.65,SW,232,0.0,0.0,75,0.00,,,0.00,VWS V14.00,2013-02-28 06:47:00,
2013-02-28 01:52:00,32.0,25.0,29.65,SW,231,0.0,0.0,75,0.00,,,0.00,VWS V14.00,2013-02-28 06:52:00,
2013-02-28 01:57:00,32.0,24.6,29.65,WSW,257,0.0,0.0,74,0.00,,,0.00,VWS V14.00,2013-02-28 06:57:00,
2013-02-28 02:02:00,31.6,24.6,29.65,WSW,249,0.0,0.0,75,0.00,,,0.00,VWS V14.00,2013-02-28 07:02:00,
2013-02-28 02:07:00,31.6,24.6,29.65,WSW,252,0.0,0.0,75,0.00,,,0.00,VWS V14.00,2013-02-28 07:07:00,
2013-02-28 02:12:00,31.4,24.4,29.65,SW,234,0.0,0.0,75,0.00,,,0.00,VWS V14.00,2013-02-28 07:12:00,
2013-02-28 02:17:00,31.2,24.2,29.65,SSW,211,0.0,0.0,75,0.00,,,0.00,VWS V14.00,2013-02-28 07:17:00,
2013-02-28 02:22:00,31.2,23.9,29.65,WSW,245,0.0,0.0,74,0.00,,,0.00,VWS V14.00,2013-02-28 07:22:00,
2013-02-28 02:27:00,31.2,23.9,29.65,WSW,247,0.0,0.0,74,0.00,,,0.00,VWS V14.00,2013-02-28 07:27:00,
2013-02-28 02:32:00,31.2,23.9,29.65,SW,225,0.0,0.0,74,0.00,,OVC036,0.00,VWS V14.00,2013-02-28 07:32:00,
2013-02-28 02:37:00,31.0,24.0,29.65,SSW,207,0.0,0.0,75,0.00,,OVC036,0.00,VWS V14.00,2013-02-28 07:37:00,
2013-02-28 02:42:00,31.0,24.0,29.65,SW,225,0.0,0.0,75,0.00,,OVC036,0.00,VWS V14.00,2013-02-28 07:42:00,
2013-02-28 02:47:00,31.0,24.0,29.65,SW,216,0.0,0.0,75,0.00,,OVC036,0.00,VWS V14.00,2013-02-28 07:47:00,
2013-02-28 02:52:00,31.0,24.4,29.65,SSW,199,0.0,0.0,76,0.00,,OVC036,0.00,VWS V14.00,2013-02-28 07:52:00,
2013-02-28 02:57:00,30.9,24.2,29.65,WSW,251,0.0,0.0,76,0.00,,OVC036,0.00,VWS V14.00,2013-02-28 07:57:00,
2013-02-28 03:03:00,30.9,24.2,29.65,WNW,297,0.0,0.0,76,0.00,,OVC034,0.00,VWS V14.00,2013-02-28 08:03:00,
2013-02-28 03:08:00,30.7,24.0,29.65,WSW,249,0.0,0.0,76,0.00,,OVC034,0.00,VWS V14.00,2013-02-28 08:08:00,
2013-02-28 03:13:00,30.7,24.0,29.65,SW,235,0.0,0.0,76,0.00,,OVC034,0.00,VWS V14.00,2013-02-28 08:13:00,
2013-02-28 03:18:00,30.3,24.0,29.65,SSW,205,0.0,0.0,77,0.00,,OVC034,0.00,VWS V14.00,2013-02-28 08:18:00,
2013-02-28 03:23:00,30.3,24.0,29.65,SW,220,0.0,0.0,77,0.00,,OVC034,0.00,VWS V14.00,2013-02-28 08:23:00,
2013-02-28 03:28:00,30.1,24.4,29.65,SSW,204,0.0,0.0,79,0.00,,OVC034,0.00,VWS V14.00,2013-02-28 08:28:00,
2013-02-28 03:33:00,30.1,24.4,29.65,SW,215,0.0,0.0,79,0.00,,OVC034,0.00,VWS V14.00,2013-02-28 08:33:00,
2013-02-28 03:38:00,29.9,24.5,29.65,SSW,195,0.0,0.0,80,0.00,,OVC034,0.00,VWS V14.00,2013-02-28 08:38:00,
2013-02-28 03:43:00,29.9,24.5,29.65,West,269,0.0,0.0,80,0.00,,OVC034,0.00,VWS V14.00,2013-02-28 08:43:00,
2013-02-28 03:48:00,29.9,24.2,29.65,SW,230,0.0,0.0,79,0.00,,OVC034,0.00,VWS V14.00,2013-02-28 08:48:00,
2013-02-28 03:53:00,29.9,23.6,29.65,WSW,258,0.0,0.0,77,0.00,,OVC034,0.00,VWS V14.00,2013-02-28 08:53:00,
2013-02-28 03:59:00,29.9,23.3,29.65,WSW,251,0.0,0.0,76,0.00,,OVC034,0.00,VWS V14.00,2013-02-28 08:59:00,
2013-02-28 04:04:00,29.9,23.0,29.65,SW,235,0.0,0.0,75,0.00,,,0.00,VWS V14.00,2013-02-28 09:04:00,
2013-02-28 04:09:00,29.9,23.0,29.65,SW,235,0.0,0.0,75,0.00,,,0.00,VWS V14.00,2013-02-28 09:09:00,
2013-02-28 04:14:00,29.9,23.0,29.65,SW,229,0.0,0.0,75,0.00,,,0.00,VWS V14.00,2013-02-28 09:14:00,
2013-02-28 04:19:00,29.9,22.7,29.65,SW,228,0.0,0.0,74,0.00,,,0.00,VWS V14.00,2013-02-28 09:19:00,
2013-02-28 04:24:00,29.9,23.0,29.65,SSW,213,0.0,0.0,75,0.00,,,0.00,VWS V14.00,2013-02-28 09:24:00,
2013-02-28 04:29:00,30.1,22.8,29.65,SW,215,0.0,0.0,74,0.00,,,0.00,VWS V14.00,2013-02-28 09:29:00,
2013-02-28 04:34:00,30.1,22.8,29.65,WSW,254,0.0,0.0,74,0.00,,,0.00,VWS V14.00,2013-02-28 09:34:00,
2013-02-28 04:39:00,30.1,22.5,29.65,SW,226,0.0,0.0,73,0.00,,,0.00,VWS V14.00,2013-02-28 09:39:00,
2013-02-28 04:44:00,30.1,22.2,29.65,West,265,0.0,0.0,72,0.00,,,0.00,VWS V14.00,2013-02-28 09:44:00,
2013-02-28 04:49:00,30.1,22.2,29.65,WSW,258,0.0,0.0,72,0.00,,,0.00,VWS V14.00,2013-02-28 09:49:00,
2013-02-28 04:54:00,30.1,22.2,29.65,WSW,258,0.0,0.0,72,0.00,,,0.00,VWS V14.00,2013-02-28 09:54:00,
2013-02-28 04:59:00,30.1,22.5,29.65,WSW,243,0.0,0.0,73,0.00,,,0.00,VWS V14.00,2013-02-28 09:59:00,
2013-02-28 05:04:00,30.1,22.5,29.65,SW,225,0.0,0.0,73,0.00,,,0.00,VWS V14.00,2013-02-28 10:04:00,
2013-02-28 05:09:00,29.9,22.3,29.65,SW,234,0.0,0.0,73,0.00,,,0.00,VWS V14.00,2013-02-28 10:09:00,
2013-02-28 05:15:00,29.9,22.3,29.65,SW,225,0.0,0.0,73,0.00,,,0.00,VWS V14.00,2013-02-28 10:15:00,
2013-02-28 05:20:00,29.9,22.3,29.65,SSW,209,0.0,0.0,73,0.00,,,0.00,VWS V14.00,2013-02-28 10:20:00,
2013-02-28 05:25:00,29.9,22.3,29.65,SSW,208,0.0,0.0,73,0.00,,,0.00,VWS V14.00,2013-02-28 10:25:00,
2013-02-28 05:30:00,29.9,22.3,29.65,SSW,192,0.0,0.0,73,0.00,,,0.00,VWS V14.00,2013-02-28 10:30:00,
2013-02-28 05:35:00,30.1,22.2,29.65,West,265,0.0,0.0,72,0.00,,,0.00,VWS V14.00,2013-02-28 10:35:00,
2013-02-28 05:40:00,30.1,22.2,29.65,WSW,253,0.0,0.0,72,0.00,,,0.00,VWS V14.00,2013-02-28 10:40:00,
2013-02-28 05:45:00,30.1,22.2,29.65,WSW,248,0.0,0.0,72,0.00,,,0.00,VWS V14.00,2013-02-28 10:45:00,
2013-02-28 05:50:00,30.1,22.5,29.65,WSW,243,0.0,0.0,73,0.00,,,0.00,VWS V14.00,2013-02-28 10:50:00,
2013-02-28 05:55:00,30.1,22.5,29.65,SW,224,0.0,0.0,73,0.00,,,0.00,VWS V14.00,2013-02-28 10:55:00,
2013-02-28 06:00:00,29.9,22.3,29.65,SW,217,0.0,0.0,73,0.00,,,0.00,VWS V14.00,2013-02-28 11:00:00,
2013-02-28 06:05:00,29.9,22.3,29.65,South,187,0.0,0.0,73,0.00,,,0.00,VWS V14.00,2013-02-28 11:05:00,
2013-02-28 06:10:00,30.1,22.5,29.65,SSW,204,0.0,0.0,73,0.00,,,0.00,VWS V14.00,2013-02-28 11:10:00,
2013-02-28 06:15:00,30.3,21.4,29.65,SSW,206,0.0,0.0,69,0.00,,,0.00,VWS V14.00,2013-02-28 11:15:00,
2013-02-28 06:20:00,30.1,21.9,29.65,SSW,202,0.0,0.0,71,0.00,,,0.00,VWS V14.00,2013-02-28 11:20:00,
2013-02-28 06:26:00,30.1,21.5,29.65,SSW,212,0.0,0.0,70,0.00,,,0.00,VWS V14.00,2013-02-28 11:26:00,
2013-02-28 06:31:00,30.3,21.0,29.65,WNW,285,0.0,0.0,68,0.00,,,0.00,VWS V14.00,2013-02-28 11:31:00,
2013-02-28 06:36:00,30.5,20.5,29.65,SW,221,0.0,0.0,66,0.00,,,0.00,VWS V14.00,2013-02-28 11:36:00,
2013-02-28 06:41:00,30.3,20.7,29.65,WSW,248,0.0,0.0,67,0.00,,,0.00,VWS V14.00,2013-02-28 11:41:00,
2013-02-28 06:46:00,30.3,20.7,29.65,West,260,0.0,0.0,67,0.00,,,0.00,VWS V14.00,2013-02-28 11:46:00,
2013-02-28 06:51:00,30.3,21.0,29.65,SW,233,0.0,0.0,68,0.00,,,0.00,VWS V14.00,2013-02-28 11:51:00,
2013-02-28 06:56:00,30.3,20.7,29.65,SW,225,0.0,0.0,67,0.00,,,0.00,VWS V14.00,2013-02-28 11:56:00,
2013-02-28 07:01:00,30.1,20.8,29.65,WSW,245,0.0,0.0,68,0.00,,,0.00,VWS V14.00,2013-02-28 12:01:00,
2013-02-28 07:06:00,30.3,21.0,29.65,SSW,197,0.0,0.0,68,0.00,,OVC047,0.00,VWS V14.00,2013-02-28 12:06:00,
2013-02-28 07:11:00,30.1,21.2,29.65,WSW,250,0.0,0.0,69,0.00,,OVC047,0.00,VWS V14.00,2013-02-28 12:11:00,
2013-02-28 07:16:00,30.1,21.5,29.65,SW,231,0.0,0.0,70,0.00,,OVC047,0.00,VWS V14.00,2013-02-28 12:16:00,
2013-02-28 07:21:00,30.1,21.5,29.65,West,259,0.0,0.0,70,0.00,,OVC047,0.00,VWS V14.00,2013-02-28 12:21:00,
2013-02-28 07:26:00,30.1,22.2,29.65,West,281,0.0,0.0,72,0.00,,OVC047,0.00,VWS V14.00,2013-02-28 12:26:00,
2013-02-28 07:31:00,30.1,22.5,29.65,West,265,0.0,0.0,73,0.00,,OVC047,0.00,VWS V14.00,2013-02-28 12:31:00,
2013-02-28 07:37:00,30.1,22.5,29.65,WNW,285,0.0,0.0,73,0.00,,OVC047,0.00,VWS V14.00,2013-02-28 12:37:00,
2013-02-28 07:42:00,29.9,22.7,29.65,West,279,0.0,0.0,74,0.00,,OVC047,0.00,VWS V14.00,2013-02-28 12:42:00,
2013-02-28 07:47:00,29.9,23.0,29.65,West,266,0.0,0.0,75,0.00,,OVC047,0.00,VWS V14.00,2013-02-28 12:47:00,
2013-02-28 07:52:00,30.1,21.9,29.65,WNW,283,0.0,0.0,71,0.00,,OVC047,0.00,VWS V14.00,2013-02-28 12:52:00,
2013-02-28 07:57:00,29.9,21.3,29.65,West,273,0.0,0.0,70,0.00,,OVC047,0.00,VWS V14.00,2013-02-28 12:57:00,
2013-02-28 08:02:00,29.9,21.0,29.65,West,264,0.0,0.0,69,0.00,,BKN036,0.00,VWS V14.00,2013-02-28 13:02:00,
2013-02-28 08:07:00,29.7,20.8,29.67,WSW,256,0.0,0.0,69,0.00,,BKN036,0.00,VWS V14.00,2013-02-28 13:07:00,
2013-02-28 08:12:00,29.7,20.8,29.67,West,278,0.0,0.0,69,0.00,,BKN036,0.00,VWS V14.00,2013-02-28 13:12:00,
2013-02-28 08:17:00,29.5,21.0,29.67,West,265,0.0,0.0,70,0.00,,OVC033,0.00,VWS V14.00,2013-02-28 13:17:00,
2013-02-28 08:22:00,29.5,21.0,29.67,WSW,247,0.0,0.0,70,0.00,,OVC033,0.00,VWS V14.00,2013-02-28 13:22:00,
2013-02-28 08:27:00,29.5,20.6,29.67,West,262,0.0,0.0,69,0.00,,OVC033,0.00,VWS V14.00,2013-02-28 13:27:00,
2013-02-28 08:32:00,29.5,20.6,29.67,SW,233,0.0,0.0,69,0.00,,OVC033,0.00,VWS V14.00,2013-02-28 13:32:00,
2013-02-28 08:37:00,29.5,20.3,29.67,WSW,245,0.0,0.0,68,0.00,,OVC033,0.00,VWS V14.00,2013-02-28 13:37:00,
2013-02-28 08:42:00,29.7,20.1,29.67,SW,227,0.0,0.0,67,0.00,,OVC033,0.00,VWS V14.00,2013-02-28 13:42:00,
2013-02-28 08:47:00,29.7,19.8,29.67,West,262,0.0,0.0,66,0.00,,OVC033,0.00,VWS V14.00,2013-02-28 13:47:00,
2013-02-28 08:53:00,29.7,19.1,29.67,West,265,0.0,0.0,64,0.00,,OVC033,0.00,VWS V14.00,2013-02-28 13:53:00,
2013-02-28 08:58:00,29.7,18.7,29.67,WSW,244,0.0,0.0,63,0.00,,OVC033,0.00,VWS V14.00,2013-02-28 13:58:00,
2013-02-28 09:03:00,29.7,19.1,29.67,SW,235,0.0,0.0,64,0.00,,,0.00,VWS V14.00,2013-02-28 14:03:00,
2013-02-28 09:08:00,29.5,19.2,29.67,SSW,199,0.0,0.0,65,0.00,,,0.00,VWS V14.00,2013-02-28 14:08:00,
2013-02-28 09:13:00,29.9,20.3,29.67,WSW,243,0.0,0.0,67,0.00,,,0.00,VWS V14.00,2013-02-28 14:13:00,
2013-02-28 09:18:00,30.3,20.0,29.67,West,265,0.0,0.0,65,0.00,,,0.00,VWS V14.00,2013-02-28 14:18:00,
2013-02-28 09:23:00,31.0,20.7,29.67,WSW,251,0.0,0.0,65,0.00,,,0.00,VWS V14.00,2013-02-28 14:23:00,
2013-02-28 09:28:00,31.2,20.5,29.67,SSW,206,0.0,0.0,64,0.00,,,0.00,VWS V14.00,2013-02-28 14:28:00,
2013-02-28 09:33:00,31.2,20.1,29.67,SW,224,5.9,6.4,63,0.00,,,0.00,VWS V14.00,2013-02-28 14:33:00,
2013-02-28 09:38:00,31.8,20.3,29.67,WSW,249,6.9,12.1,62,0.00,,,0.00,VWS V14.00,2013-02-28 14:38:00,
2013-02-28 09:43:00,31.8,20.3,29.67,WSW,250,11.1,12.1,62,0.00,,,0.00,VWS V14.00,2013-02-28 14:43:00,
2013-02-28 09:48:00,32.0,19.7,29.67,West,263,12.1,13.2,60,0.00,,,0.00,VWS V14.00,2013-02-28 14:48:00,
2013-02-28 09:53:00,32.2,20.2,29.67,SW,230,5.9,11.5,61,0.00,,,0.00,VWS V14.00,2013-02-28 14:53:00,
2013-02-28 09:58:00,32.5,20.6,29.67,West,268,6.4,9.9,61,0.00,,,0.00,VWS V14.00,2013-02-28 14:58:00,
2013-02-28 10:03:00,32.5,20.6,29.67,West,259,8.4,9.1,61,0.00,,,0.00,VWS V14.00,2013-02-28 15:03:00,
2013-02-28 10:08:00,32.2,20.2,29.67,WSW,250,8.4,13.2,61,0.00,,,0.00,VWS V14.00,2013-02-28 15:08:00,
2013-02-28 10:13:00,32.2,19.8,29.67,SW,230,8.9,10.5,60,0.00,,,0.00,VWS V14.00,2013-02-28 15:13:00,
2013-02-28 10:18:00,32.7,20.4,29.67,South,189,3.4,7.0,60,0.00,,,0.00,VWS V14.00,2013-02-28 15:18:00,
2013-02-28 10:23:00,32.2,19.0,29.67,WSW,242,5.9,9.7,58,0.00,,,0.00,VWS V14.00,2013-02-28 15:23:00,
2013-02-28 10:29:00,32.5,19.8,29.67,SW,215,12.1,13.2,59,0.00,,,0.00,VWS V14.00,2013-02-28 15:29:00,
2013-02-28 10:34:00,32.7,20.4,29.67,SW,221,4.4,12.1,60,0.00,,,0.00,VWS V14.00,2013-02-28 15:34:00,
2013-02-28 10:39:00,33.1,20.7,29.67,SW,234,8.4,9.1,60,0.00,,,0.00,VWS V14.00,2013-02-28 15:39:00,
2013-02-28 10:44:00,33.3,20.5,29.67,WSW,240,8.9,10.5,59,0.00,,,0.00,VWS V14.00,2013-02-28 15:44:00,
2013-02-28 10:49:00,32.5,19.4,29.67,SW,226,6.9,9.1,58,0.00,,,0.00,VWS V14.00,2013-02-28 15:49:00,
2013-02-28 10:54:00,32.3,19.6,29.67,WSW,248,5.9,9.7,59,0.00,,,0.00,VWS V14.00,2013-02-28 15:54:00,
2013-02-28 10:59:00,32.0,19.7,29.67,West,277,3.9,9.1,60,0.00,,,0.00,VWS V14.00,2013-02-28 15:59:00,
2013-02-28 11:04:00,32.2,20.2,29.67,West,263,6.4,9.7,61,0.00,,,0.00,VWS V14.00,2013-02-28 16:04:00,
2013-02-28 11:09:00,32.5,21.3,29.67,WSW,255,6.9,10.5,63,0.00,,,0.00,VWS V14.00,2013-02-28 16:09:00,
2013-02-28 11:14:00,32.7,22.2,29.67,WSW,252,6.9,9.1,65,0.00,,,0.00,VWS V14.00,2013-02-28 16:14:00,
2013-02-28 11:19:00,32.2,20.6,29.67,WSW,252,5.9,11.5,62,0.00,,,0.00,VWS V14.00,2013-02-28 16:19:00,
2013-02-28 11:24:00,32.0,20.4,29.67,West,265,5.4,9.7,62,0.00,,,0.00,VWS V14.00,2013-02-28 16:24:00,
2013-02-28 11:29:00,31.8,19.9,29.67,West,277,9.1,9.9,61,0.00,,,0.00,VWS V14.00,2013-02-28 16:29:00,
2013-02-28 11:34:00,31.8,20.3,29.67,WSW,249,8.9,9.7,62,0.00,,,0.00,VWS V14.00,2013-02-28 16:34:00,
2013-02-28 11:39:00,31.6,20.1,29.67,SW,220,12.1,13.2,62,0.00,,,0.00,VWS V14.00,2013-02-28 16:39:00,
2013-02-28 11:45:00,31.0,19.9,29.67,WSW,254,11.1,16.4,63,0.00,,,0.00,VWS V14.00,2013-02-28 16:45:00,
2013-02-28 11:50:00,31.2,20.8,29.70,West,281,9.1,10.5,65,0.00,,,0.00,VWS V14.00,2013-02-28 16:50:00,
2013-02-28 11:55:00,31.6,21.5,29.70,West,267,8.9,12.6,66,0.00,,,0.00,VWS V14.00,2013-02-28 16:55:00,
2013-02-28 12:00:00,31.6,21.9,29.70,SW,233,11.1,12.1,67,0.00,,,0.00,VWS V14.00,2013-02-28 17:00:00,
2013-02-28 12:05:00,31.8,21.7,29.67,WNW,291,13.0,14.2,66,0.00,,,0.00,VWS V14.00,2013-02-28 17:05:00,
2013-02-28 12:10:00,31.8,21.0,29.67,WSW,252,9.1,13.2,64,0.00,,,0.00,VWS V14.00,2013-02-28 17:10:00,
2013-02-28 12:15:00,32.0,21.2,29.67,WSW,257,5.4,7.5,64,0.00,,,0.00,VWS V14.00,2013-02-28 17:15:00,
2013-02-28 12:20:00,32.2,21.7,29.67,WSW,248,6.9,9.7,65,0.00,,,0.00,VWS V14.00,2013-02-28 17:20:00,
2013-02-28 12:25:00,31.8,21.0,29.67,West,259,4.9,9.1,64,0.00,,,0.00,VWS V14.00,2013-02-28 17:25:00,
2013-02-28 12:30:00,31.6,20.8,29.67,WSW,238,8.9,10.5,64,0.00,,,0.00,VWS V14.00,2013-02-28 17:30:00,
2013-02-28 12:35:00,31.4,21.4,29.67,West,260,8.4,9.1,66,0.00,,,0.00,VWS V14.00,2013-02-28 17:35:00,
2013-02-28 12:40:00,31.4,21.4,29.67,SW,235,6.4,9.1,66,0.00,,,0.00,VWS V14.00,2013-02-28 17:40:00,
2013-02-28 12:45:00,31.2,20.8,29.67,West,264,9.1,14.8,65,0.00,,,0.00,VWS V14.00,2013-02-28 17:45:00,
2013-02-28 12:50:00,31.2,20.8,29.67,West,261,11.6,15.8,65,0.00,,,0.00,VWS V14.00,2013-02-28 17:50:00,
2013-02-28 12:55:00,31.2,21.5,29.67,West,261,14.0,16.4,67,0.00,,,0.00,VWS V14.00,2013-02-28 17:55:00,
2013-02-28 13:01:00,31.0,21.0,29.67,West,262,8.4,9.1,66,0.00,,,0.00,VWS V14.00,2013-02-28 18:01:00,
2013-02-28 13:06:00,31.0,21.4,29.67,WSW,245,8.9,13.2,67,0.00,,,0.00,VWS V14.00,2013-02-28 18:06:00,
2013-02-28 13:11:00,30.9,21.5,29.67,WSW,258,7.9,8.6,68,0.00,,,0.00,VWS V14.00,2013-02-28 18:11:00,
2013-02-28 13:16:00,30.9,21.5,29.67,West,273,6.4,10.5,68,0.00,,,0.00,VWS V14.00,2013-02-28 18:16:00,
2013-02-28 13:21:00,31.0,22.4,29.67,SW,223,10.6,12.1,70,0.00,,,0.00,VWS V14.00,2013-02-28 18:21:00,
2013-02-28 13:26:00,30.9,21.9,29.67,WSW,253,6.9,10.5,69,0.00,,,0.00,VWS V14.00,2013-02-28 18:26:00,
2013-02-28 13:31:00,30.7,21.4,29.67,WSW,245,4.4,9.1,68,0.00,,,0.00,VWS V14.00,2013-02-28 18:31:00,
2013-02-28 13:36:00,30.7,22.0,29.67,West,267,6.9,9.7,70,0.00,,,0.00,VWS V14.00,2013-02-28 18:36:00,
2013-02-28 13:41:00,30.9,22.2,29.67,WSW,240,8.4,9.1,70,0.00,,,0.00,VWS V14.00,2013-02-28 18:41:00,
2013-02-28 13:46:00,31.0,22.8,29.67,West,271,9.1,13.2,71,0.00,,,0.00,VWS V14.00,2013-02-28 18:46:00,
2013-02-28 13:51:00,30.9,22.2,29.67,SW,234,6.4,8.1,70,0.00,,,0.00,VWS V14.00,2013-02-28 18:51:00,
2013-02-28 13:56:00,31.0,22.4,29.67,SW,233,6.9,7.5,70,0.00,,,0.00,VWS V14.00,2013-02-28 18:56:00,
2013-02-28 14:01:00,31.0,22.8,29.67,WSW,257,3.4,4.8,71,0.00,,,0.00,VWS V14.00,2013-02-28 19:01:00,
2013-02-28 14:06:00,31.0,22.8,29.67,SW,229,6.9,9.1,71,0.00,,,0.00,VWS V14.00,2013-02-28 19:06:00,
2013-02-28 14:11:00,31.2,22.9,29.67,West,260,5.4,9.1,71,0.00,,,0.00,VWS V14.00,2013-02-28 19:11:00,
2013-02-28 14:17:00,31.2,23.3,29.67,WSW,245,4.4,7.5,72,0.00,,,0.00,VWS V14.00,2013-02-28 19:17:00,
2013-02-28 14:22:00,31.2,22.9,29.67,WSW,252,7.9,8.6,71,0.00,,,0.00,VWS V14.00,2013-02-28 19:22:00,
2013-02-28 14:27:00,31.0,22.4,29.67,WSW,256,8.4,10.5,70,0.00,,,0.00,VWS V14.00,2013-02-28 19:27:00,
2013-02-28 14:32:00,31.0,22.1,29.67,West,260,9.1,9.9,69,0.00,,,0.00,VWS V14.00,2013-02-28 19:32:00,
2013-02-28 14:37:00,31.0,22.4,29.67,WSW,255,3.9,6.4,70,0.00,,,0.00,VWS V14.00,2013-02-28 19:37:00,
2013-02-28 14:42:00,31.2,22.9,29.67,West,275,8.4,9.9,71,0.00,,,0.00,VWS V14.00,2013-02-28 19:42:00,
2013-02-28 14:47:00,31.2,22.6,29.67,WSW,243,6.4,9.9,70,0.00,,,0.00,VWS V14.00,2013-02-28 19:47:00,
2013-02-28 14:52:00,31.0,21.7,29.67,WSW,242,6.9,10.5,68,0.00,,,0.00,VWS V14.00,2013-02-28 19:52:00,
2013-02-28 14:57:00,31.2,22.6,29.67,SW,232,6.9,13.2,70,0.00,,,0.00,VWS V14.00,2013-02-28 19:57:00,
2013-02-28 15:02:00,31.2,22.2,29.67,West,264,8.9,9.7,69,0.00,,,0.00,VWS V14.00,2013-02-28 20:02:00,
2013-02-28 15:07:00,31.4,22.4,29.67,WSW,246,6.9,7.5,69,0.00,,,0.00,VWS V14.00,2013-02-28 20:07:00,
2013-02-28 15:12:00,31.4,22.1,29.67,SSW,193,9.6,12.6,68,0.00,,,0.00,VWS V14.00,2013-02-28 20:12:00,
2013-02-28 15:17:00,31.4,22.1,29.67,WSW,252,9.6,13.2,68,0.00,,,0.00,VWS V14.00,2013-02-28 20:17:00,
2013-02-28 15:22:00,31.4,22.4,29.67,WSW,248,9.1,9.9,69,0.00,,,0.00,VWS V14.00,2013-02-28 20:22:00,
2013-02-28 15:27:00,31.4,22.1,29.67,WNW,301,12.1,13.2,68,0.00,,,0.00,VWS V14.00,2013-02-28 20:27:00,
2013-02-28 15:32:00,31.4,22.4,29.70,WSW,245,8.4,9.1,69,0.00,,,0.00,VWS V14.00,2013-02-28 20:32:00,
2013-02-28 15:37:00,31.4,22.4,29.70,WSW,247,9.6,10.5,69,0.00,,,0.00,VWS V14.00,2013-02-28 20:37:00,
2013-02-28 15:43:00,31.4,22.1,29.70,SW,226,4.4,11.0,68,0.00,,,0.00,VWS V14.00,2013-02-28 20:43:00,
2013-02-28 15:48:00,31.2,21.5,29.70,West,273,3.9,6.4,67,0.00,,,0.00,VWS V14.00,2013-02-28 20:48:00,
2013-02-28 15:53:00,31.2,21.9,29.70,West,268,9.6,12.1,68,0.00,,,0.00,VWS V14.00,2013-02-28 20:53:00,
2013-02-28 15:58:00,31.2,22.2,29.70,WSW,240,9.6,10.5,69,0.00,,,0.00,VWS V14.00,2013-02-28 20:58:00,
2013-02-28 16:03:00,31.0,22.1,29.70,West,275,8.4,12.1,69,0.00,,,0.00,VWS V14.00,2013-02-28 21:03:00,
2013-02-28 16:08:00,31.0,22.4,29.70,WSW,258,12.1,13.2,70,0.00,,,0.00,VWS V14.00,2013-02-28 21:08:00,
2013-02-28 16:13:00,31.0,22.1,29.70,WNW,284,9.1,10.5,69,0.00,,,0.00,VWS V14.00,2013-02-28 21:13:00,
2013-02-28 16:18:00,31.0,22.1,29.70,West,280,14.0,15.3,69,0.00,,,0.00,VWS V14.00,2013-02-28 21:18:00,
2013-02-28 16:23:00,31.0,22.4,29.70,WSW,252,11.1,13.2,70,0.00,,,0.00,VWS V14.00,2013-02-28 21:23:00,
2013-02-28 16:28:00,30.9,22.2,29.70,West,267,13.5,14.8,70,0.00,,,0.00,VWS V14.00,2013-02-28 21:28:00,
2013-02-28 16:33:00,30.9,21.9,29.70,West,277,11.1,12.1,69,0.00,,,0.00,VWS V14.00,2013-02-28 21:33:00,
2013-02-28 16:39:00,30.9,22.2,29.70,WSW,252,12.1,13.2,70,0.00,,,0.00,VWS V14.00,2013-02-28 21:39:00,
2013-02-28 16:44:00,30.9,22.2,29.70,West,274,8.4,9.9,70,0.00,,,0.00,VWS V14.00,2013-02-28 21:44:00,
2013-02-28 16:49:00,30.9,22.2,29.70,West,260,11.6,12.6,70,0.00,,,0.00,VWS V14.00,2013-02-28 21:49:00,
2013-02-28 16:54:00,30.7,22.4,29.70,WSW,253,16.5,18.0,71,0.00,,,0.00,VWS V14.00,2013-02-28 21:54:00,
2013-02-28 16:59:00,30.7,22.0,29.70,West,264,9.6,10.5,70,0.00,,,0.00,VWS V14.00,2013-02-28 21:59:00,
2013-02-28 17:04:00,30.7,22.4,29.70,West,274,12.1,13.2,71,0.00,,,0.00,VWS V14.00,2013-02-28 22:04:00,
2013-02-28 17:09:00,30.7,22.7,29.70,WNW,285,14.0,16.4,72,0.00,,,0.00,VWS V14.00,2013-02-28 22:09:00,
2013-02-28 17:14:00,30.5,22.5,29.70,West,261,12.1,18.5,72,0.00,,,0.00,VWS V14.00,2013-02-28 22:14:00,
2013-02-28 17:19:00,30.7,22.7,29.70,WNW,289,10.1,15.8,72,0.00,,,0.00,VWS V14.00,2013-02-28 22:19:00,
2013-02-28 17:24:00,30.5,22.2,29.70,SW,231,12.1,14.2,71,0.00,,,0.00,VWS V14.00,2013-02-28 22:24:00,
2013-02-28 17:29:00,30.5,22.2,29.70,WSW,249,10.6,14.8,71,0.00,,,0.00,VWS V14.00,2013-02-28 22:29:00,
2013-02-28 17:34:00,30.5,22.5,29.70,West,271,9.1,14.8,72,0.00,,,0.00,VWS V14.00,2013-02-28 22:34:00,
2013-02-28 17:39:00,30.5,22.9,29.70,West,267,8.4,12.6,73,0.00,,,0.00,VWS V14.00,2013-02-28 22:39:00,
2013-02-28 17:44:00,30.5,22.9,29.70,WSW,239,6.4,9.1,73,0.00,,,0.00,VWS V14.00,2013-02-28 22:44:00,
2013-02-28 17:49:00,30.3,22.7,29.70,WSW,245,7.4,8.1,73,0.00,,,0.00,VWS V14.00,2013-02-28 22:49:00,
2013-02-28 17:54:00,30.3,22.7,29.70,SW,232,6.4,9.7,73,0.00,,,0.00,VWS V14.00,2013-02-28 22:54:00,
2013-02-28 17:59:00,30.1,23.1,29.70,WSW,245,5.4,10.5,75,0.00,,,0.00,VWS V14.00,2013-02-28 22:59:00,
2013-02-28 18:05:00,30.1,23.1,29.70,SSW,203,9.1,12.6,75,0.00,,,0.00,VWS V14.00,2013-02-28 23:05:00,
2013-02-28 18:10:00,30.1,23.1,29.70,WSW,255,11.6,12.6,75,0.00,,,0.00,VWS V14.00,2013-02-28 23:10:00,
2013-02-28 18:15:00,30.3,23.0,29.70,WSW,256,14.0,15.3,74,0.00,,,0.00,VWS V14.00,2013-02-28 23:15:00,
2013-02-28 18:20:00,30.3,23.0,29.73,SW,222,8.9,11.5,74,0.00,,,0.00,VWS V14.00,2013-02-28 23:20:00,
2013-02-28 18:25:00,30.7,22.4,29.73,SW,225,6.9,15.8,71,0.00,,,0.00,VWS V14.00,2013-02-28 23:25:00,
2013-02-28 18:30:00,30.7,22.7,29.73,West,269,9.6,14.2,72,0.00,,,0.00,VWS V14.00,2013-02-28 23:30:00,
2013-02-28 18:35:00,30.5,22.9,29.73,WSW,254,16.0,17.4,73,0.00,,,0.00,VWS V14.00,2013-02-28 23:35:00,
2013-02-28 18:40:00,30.7,23.0,29.73,WSW,254,11.6,13.2,73,0.00,,,0.00,VWS V14.00,2013-02-28 23:40:00,
2013-02-28 18:45:00,30.5,22.9,29.73,WSW,253,14.0,15.8,73,0.00,,,0.00,VWS V14.00,2013-02-28 23:45:00,
2013-02-28 18:50:00,30.5,23.2,29.73,West,264,14.0,15.3,74,0.00,,,0.00,VWS V14.00,2013-02-28 23:50:00,
2013-02-28 18:55:00,30.5,23.2,29.73,WSW,246,8.9,15.8,74,0.00,,,0.00,VWS V14.00,2013-02-28 23:55:00,
2013-02-28 19:00:00,30.5,23.2,29.73,West,271,11.1,20.4,74,0.00,,,0.00,VWS V14.00,2013-03-01 00:00:00,
2013-02-28 19:05:00,30.5,23.2,29.73,WSW,246,8.9,12.6,74,0.00,,,0.00,VWS V14.00,2013-03-01 00:05:00,
2013-02-28 19:10:00,30.5,23.5,29.73,WSW,239,11.6,15.8,75,0.00,,,0.00,VWS V14.00,2013-03-01 00:10:00,
2013-02-28 19:15:00,30.5,23.5,29.73,SW,222,16.0,17.4,75,0.00,,,0.00,VWS V14.00,2013-03-01 00:15:00,
2013-02-28 19:20:00,30.5,23.2,29.76,West,272,8.4,11.0,74,0.00,,,0.00,VWS V14.00,2013-03-01 00:20:00,
2013-02-28 19:25:00,30.5,23.5,29.76,WSW,248,5.9,15.8,75,0.00,,,0.00,VWS V14.00,2013-03-01 00:25:00,
2013-02-28 19:30:00,30.7,23.4,29.76,West,263,9.1,9.9,74,0.00,,,0.00,VWS V14.00,2013-03-01 00:30:00,
2013-02-28 19:35:00,30.5,23.2,29.76,SW,233,7.4,9.1,74,0.00,,,0.00,VWS V14.00,2013-03-01 00:35:00,
2013-02-28 19:40:00,30.7,23.4,29.76,WSW,246,9.1,11.5,74,0.00,,,0.00,VWS V14.00,2013-03-01 00:40:00,
2013-02-28 19:45:00,30.7,23.4,29.76,WNW,287,9.6,10.5,74,0.00,,,0.00,VWS V14.00,2013-03-01 00:45:00,
2013-02-28 19:51:00,30.9,23.2,29.76,WSW,258,14.0,15.3,73,0.00,,,0.00,VWS V14.00,2013-03-01 00:51:00,
2013-02-28 19:56:00,30.7,23.4,29.76,SW,218,9.1,9.9,74,0.00,,,0.00,VWS V14.00,2013-03-01 00:56:00,
2013-02-28 20:01:00,30.5,23.5,29.76,WSW,246,8.9,9.7,75,0.00,,,0.00,VWS V14.00,2013-03-01 01:01:00,
2013-02-28 20:06:00,30.5,23.8,29.76,SW,231,9.1,14.8,76,0.00,,,0.00,VWS V14.00,2013-03-01 01:06:00,
2013-02-28 20:11:00,30.5,23.8,29.76,SW,234,9.6,10.5,76,0.00,,,0.00,VWS V14.00,2013-03-01 01:11:00,
2013-02-28 20:16:00,30.5,23.8,29.76,West,261,8.9,9.9,76,0.00,,,0.00,VWS V14.00,2013-03-01 01:16:00,
2013-02-28 20:21:00,30.5,24.1,29.76,West,281,6.9,9.7,77,0.00,,,0.00,VWS V14.00,2013-03-01 01:21:00,
2013-02-28 20:26:00,30.5,24.1,29.76,West,263,6.9,9.7,77,0.00,,,0.00,VWS V14.00,2013-03-01 01:26:00,
2013-02-28 20:31:00,30.7,24.3,29.76,SW,221,6.4,7.5,77,0.00,,,0.00,VWS V14.00,2013-03-01 01:31:00,
2013-02-28 20:36:00,30.7,24.0,29.76,WSW,241,8.4,13.2,76,0.00,,,0.00,VWS V14.00,2013-03-01 01:36:00,
2013-02-28 20:41:00,30.7,24.3,29.76,West,273,10.6,12.6,77,0.00,,,0.00,VWS V14.00,2013-03-01 01:41:00,
2013-02-28 20:46:00,30.9,24.5,29.76,WSW,251,9.6,12.1,77,0.00,,,0.00,VWS V14.00,2013-03-01 01:46:00,
2013-02-28 20:51:00,30.9,24.5,29.76,SW,234,6.4,9.9,77,0.00,,,0.00,VWS V14.00,2013-03-01 01:51:00,
2013-02-28 20:56:00,30.9,24.2,29.76,WSW,254,8.4,10.5,76,0.00,,,0.00,VWS V14.00,2013-03-01 01:56:00,
2013-02-28 21:01:00,30.9,24.2,29.76,West,259,8.9,12.6,76,0.00,,,0.00,VWS V14.00,2013-03-01 02:01:00,
2013-02-28 21:06:00,30.9,24.5,29.76,WNW,286,6.9,10.5,77,0.00,,,0.00,VWS V14.00,2013-03-01 02:06:00,
2013-02-28 21:11:00,30.9,24.2,29.76,SW,226,3.0,7.5,76,0.00,,,0.00,VWS V14.00,2013-03-01 02:11:00,
2013-02-28 21:17:00,30.9,24.5,29.76,WSW,238,3.9,6.4,77,0.00,,,0.00,VWS V14.00,2013-03-01 02:17:00,
2013-02-28 21:22:00,30.9,24.5,29.76,SW,220,5.4,6.4,77,0.00,,,0.00,VWS V14.00,2013-03-01 02:22:00,
2013-02-28 21:27:00,31.0,24.7,29.76,West,277,6.4,7.0,77,0.00,,,0.00,VWS V14.00,2013-03-01 02:27:00,
2013-02-28 21:32:00,31.0,24.4,29.76,SW,227,5.9,7.5,76,0.00,,,0.00,VWS V14.00,2013-03-01 02:32:00,
2013-02-28 21:37:00,31.0,24.7,29.76,SW,220,4.4,6.4,77,0.00,,,0.00,VWS V14.00,2013-03-01 02:37:00,
2013-02-28 21:42:00,31.0,24.4,29.76,West,259,5.4,5.9,76,0.00,,,0.00,VWS V14.00,2013-03-01 02:42:00,
2013-02-28 21:47:00,30.9,24.5,29.76,West,270,4.4,4.8,77,0.00,,,0.00,VWS V14.00,2013-03-01 02:47:00,
2013-02-28 21:52:00,30.9,24.5,29.76,South,186,3.9,4.3,77,0.00,,,0.00,VWS V14.00,2013-03-01 02:52:00,
2013-02-28 21:57:00,30.9,24.5,29.76,WSW,244,3.4,4.8,77,0.00,,,0.00,VWS V14.00,2013-03-01 02:57:00,
2013-02-28 22:02:00,30.9,24.5,29.76,West,261,3.9,4.8,77,0.00,,,0.00,VWS V14.00,2013-03-01 03:02:00,
2013-02-28 22:07:00,31.0,24.4,29.76,WSW,249,4.4,7.0,76,0.00,,,0.00,VWS V14.00,2013-03-01 03:07:00,
2013-02-28 22:12:00,31.0,24.4,29.76,WSW,238,6.4,7.0,76,0.00,,,0.00,VWS V14.00,2013-03-01 03:12:00,
2013-02-28 22:17:00,31.0,24.4,29.76,WSW,253,5.9,7.5,76,0.00,,,0.00,VWS V14.00,2013-03-01 03:17:00,
2013-02-28 22:22:00,31.0,24.4,29.76,SSW,199,4.9,6.4,76,0.00,,,0.00,VWS V14.00,2013-03-01 03:22:00,
2013-02-28 22:27:00,31.0,24.7,29.76,SW,233,3.4,4.8,77,0.00,,,0.00,VWS V14.00,2013-03-01 03:27:00,
2013-02-28 22:32:00,31.0,24.7,29.76,SW,234,6.4,7.0,77,0.00,,,0.00,VWS V14.00,2013-03-01 03:32:00,
2013-02-28 22:37:00,31.0,25.0,29.76,WSW,245,8.4,9.1,78,0.00,,,0.00,VWS V14.00,2013-03-01 03:37:00,
2013-02-28 22:42:00,30.9,24.8,29.76,SW,230,6.4,8.1,78,0.00,,,0.00,VWS V14.00,2013-03-01 03:42:00,
2013-02-28 22:47:00,30.9,24.8,29.76,SW,217,5.4,7.5,78,0.00,,,0.00,VWS V14.00,2013-03-01 03:47:00,
2013-02-28 22:53:00,30.9,25.1,29.76,SW,214,5.9,7.5,79,0.00,,,0.00,VWS V14.00,2013-03-01 03:53:00,
2013-02-28 22:58:00,30.9,25.1,29.76,WSW,239,3.9,7.5,79,0.00,,,0.00,VWS V14.00,2013-03-01 03:58:00,
2013-02-28 23:03:00,31.0,25.3,29.76,SSW,208,2.5,6.4,79,0.00,,,0.00,VWS V14.00,2013-03-01 04:03:00,
2013-02-28 23:08:00,30.9,25.1,29.76,SW,229,3.0,4.3,79,0.00,,,0.00,VWS V14.00,2013-03-01 04:08:00,
2013-02-28 23:13:00,30.9,25.1,29.76,West,259,5.9,6.4,79,0.00,,,0.00,VWS V14.00,2013-03-01 04:13:00,
2013-02-28 23:18:00,30.9,25.4,29.76,WSW,253,3.9,4.3,80,0.00,,,0.00,VWS V14.00,2013-03-01 04:18:00,
2013-02-28 23:23:00,31.0,25.3,29.76,WSW,251,4.4,6.4,79,0.00,,,0.00,VWS V14.00,2013-03-01 04:23:00,
2013-02-28 23:28:00,31.0,25.3,29.76,WSW,256,0.0,4.8,79,0.00,,,0.00,VWS V14.00,2013-03-01 04:28:00,
2013-02-28 23:33:00,31.0,25.6,29.76,SW,226,3.4,4.3,80,0.00,,,0.00,VWS V14.00,2013-03-01 04:33:00,
2013-02-28 23:38:00,31.0,25.6,29.76,South,190,5.4,5.9,80,0.00,,,0.00,VWS V14.00,2013-03-01 04:38:00,
2013-02-28 23:43:00,31.0,25.6,29.76,WSW,238,3.0,4.8,80,0.00,,,0.00,VWS V14.00,2013-03-01 04:43:00,
2013-02-28 23:48:00,30.9,25.4,29.76,SW,223,3.9,4.8,80,0.00,,,0.00,VWS V14.00,2013-03-01 04:48:00,
2013-02-28 23:53:00,31.0,25.6,29.76,West,276,5.9,7.0,80,0.00,,,0.00,VWS V14.00,2013-03-01 04:53:00,
2013-02-28 23:58:00,31.0,25.6,29.76,WSW,254,6.9,7.5,80,0.00,,,0.00,VWS V14.00,2013-03-01 04:58:00,